{"data":{"norad_id":59808,"epoch":"2026-09-22T22:51:08.832384Z","epoch_age_seconds":60792,"freshness":"FRESH","line1":"1 59808U 24094D   26265.95218556  .00003972  00000+0  20401-3 0  9991","line2":"2 59808  97.3758 333.9460 0002514 335.6009  24.5105 15.17057540129977","mean_motion":15.1705754,"eccentricity":0.0002514,"inclination_deg":97.3758,"raan_deg":333.946,"arg_perigee_deg":335.6009,"mean_anomaly_deg":24.5105,"bstar":0.00020401,"rev_number":12997,"period_min":94.92059213522,"perigee_km":513.00623662473,"apogee_km":516.47197473067,"semimajor_km":6892.8761056777,"source":"CELESTRAK","updated_at":"2026-09-23T09:00:19.589768Z"}}